Regional Weather Roundup
Issued by NWS

Home | Current Version | Previous Version | Graphics & Text | Print | Product List | Glossary On
Versions: 1 2 3 4 5 6 7 8 9 10 11 12 13 14 15 16 17 18 19 20 21 22 23 24 25 26 27 28 29 30 31 32 33 34 35 36 37 38 39 40 41 42 43 44 45 46 47 48 49 50
134
ASUS43 KIND 260500
RWRIN

WEATHER ROUNDUP FOR INDIANA
NATIONAL WEATHER SERVICE INDIANAPOLIS IN
100 AM EDT TUE SEP 26 2017

NOTE: "FAIR" INDICATES FEW OR NO CLOUDS BELOW 12,000 FEET WITH NO
SIGNIFICANT WEATHER AND/OR OBSTRUCTIONS TO VISIBILITY.

* - STATION DOES NOT REPORT WEATHER SUCH AS PRECIPITATION OR FOG.

+ - STATION NOT QUALITY CONTROLLED BY THE NATIONAL WEATHER SERVICE.
    USE DATA WITH CAUTION...ESPECIALLY DEWPOINT AND RELATIVE
    HUMIDITY OBSERVATIONS.

INZ001>003-010>013-019-020-260600-
NORTHWEST INDIANA

CITY           SKY/WX    TMP DP  RH WIND       PRES   REMARKS

$$

LMZ046-743>745-260600-
SOUTHERN LAKE MICHIGAN

STATION/POSITION TIME  TEMP    WIND        PRES    WAVE
                       AIR SEA DIR/SP/G            HT
                 (UTC) (F)     (DEG/KT/KT) (MB)    (FT)
BURNS HARBOR     0440   77     150/  3/  4 1014.6S
MICHIGAN CITY    0430   74     130/  8/  9   N/A
5NW MICH CITY    0450   73 72  150/  6/  6   N/A     0

$$

INZ004-005-014>016-021>024-260600-
NORTH CENTRAL INDIANA

CITY           SKY/WX    TMP DP  RH WIND       PRES   REMARKS
GOSHEN         CLEAR     66  59  78 CALM      29.98S
SOUTH BEND     CLEAR     65  60  84 CALM      29.98S

$$

INZ006>009-017-018-025>027-260600-
NORTHEAST INDIANA

CITY           SKY/WX    TMP DP  RH WIND       PRES   REMARKS
FORT WAYNE     CLEAR     65  60  84 CALM      29.99S
KENDALLVILLE + CLEAR     64  63  96 CALM      29.99F

$$

INZ028-029-035-036-043>045-051>053-260600-
WEST CENTRAL INDIANA

CITY           SKY/WX    TMP DP  RH WIND       PRES   REMARKS
LAFAYETTE      CLEAR     67  63  87 CALM      29.96S
TERRE HAUTE    CLEAR     67  62  84 CALM      29.98R

$$

INZ030>032-037>040-046>048-054>057-064-065-260600-
CENTRAL INDIANA

CITY           SKY/WX    TMP DP  RH WIND       PRES   REMARKS
GREENWOOD *+   CLEAR     69  65  85 CALM      30.00S
INDIANAPOLIS   CLEAR     73  63  70 SW5       29.99R
-EAGLE CREEK   CLEAR     70  62  76 CALM      29.98S
KOKOMO +       CLEAR     65  61  87 CALM      30.00R
MT COMFORT *+  CLEAR     66  61  82 SE5       30.00S
SHELBYVILLE    CLEAR     65  60  84 CALM      29.99R

$$

INZ033-034-041-042-049-050-058-059-260600-
EAST CENTRAL INDIANA

CITY           SKY/WX    TMP DP  RH WIND       PRES   REMARKS
MUNCIE         CLEAR     75  62  64 S6        30.00R
RICHMOND +     CLEAR     64  61  88 CALM      30.02F

$$

INZ060-061-067>069-081>083-085>088-260600-
SOUTHWEST INDIANA

CITY           SKY/WX    TMP DP  RH WIND       PRES   REMARKS
EVANSVILLE     CLEAR     71  67  87 CALM      29.97S
HUNTINGBURG +  CLEAR     70  68  93 CALM      29.98S

$$

INZ062-063-066-070>080-084-089>092-260600-
SOUTH CENTRAL AND SOUTHEAST INDIANA

CITY           SKY/WX    TMP DP  RH WIND       PRES   REMARKS
BLOOMINGTON    CLEAR     66  62  87 CALM      29.99S
MADISON *+     CLEAR     64  63  94 CALM      30.02S
SEYMOUR +      CLEAR     66  66 100 CALM      29.99S

$$





USA.gov is the U.S. government's official web portal to all federal, state and local government web resources and services.